Weather reports worldwide

Advertisment
Ouessant, France (7100): temperature & dewpoint: 13.01.2018 06:00:00 - 19.01.2018 06:00:00 (CET)Ouessant, France (7100): wind speed & gusts: 13.01.2018 06:00:00 - 19.01.2018 06:00:00 (CET)Ouessant, France (7100): wind direction: 13.01.2018 06:00:00 - 19.01.2018 06:00:00 (CET)Ouessant, France (7100): reduced air pressure: 13.01.2018 06:00:00 - 19.01.2018 06:00:00 (CET)Ouessant, France (7100): visibility: 13.01.2018 06:00:00 - 19.01.2018 06:00:00 (CET)Ouessant, France (7100): precipitation: 13.01.2018 06:00:00 - 19.01.2018 06:00:00 (CET)
Date & Time tt [°C] td [°C] ff [km/h] ff [kn] fx [km/h] fx [kn] dd ppp [hPa] vv [km] rr [mm]
19.01.2018 06:00:00 7,3 3,9 41 22 58 31 WNW 1014,7 - 0,0
19.01.2018 05:00:00 6,7 5,2 34 18 60 32 WNW 1014,7 - 0,6
19.01.2018 04:00:00 7,4 5,5 42 23 59 32 W 1014,6 10 0,2
19.01.2018 03:00:00 7,7 5,2 32 17 60 32 NW 1014,6 - 0,0
19.01.2018 02:00:00 8,0 3,3 36 20 56 30 WNW 1014,9 - 0,0
19.01.2018 01:00:00 8,3 3,7 41 22 56 30 WNW 1014,9 - 0,0
19.01.2018 00:00:00 8,1 4,3 39 21 59 32 WNW 1014,9 - 0,0
18.01.2018 23:00:00 7,9 3,9 41 22 74 40 WNW 1014,8 - 0,0
18.01.2018 22:00:00 8,0 3,3 49 27 86 47 WNW 1014,5 18 0,0
18.01.2018 21:00:00 7,8 4,7 49 27 70 38 WNW 1014,4 - 0,0
18.01.2018 20:00:00 9,1 4,7 45 24 73 39 NW 1013,9 - 0,0
18.01.2018 19:00:00 9,2 5,4 50 27 72 39 WNW 1013,2 15 0,0
18.01.2018 18:00:00 9,5 5,5 49 27 71 38 WNW 1012,6 - 0,0
18.01.2018 17:00:00 9,7 6,2 48 26 73 40 WNW 1012,1 - 0,0
18.01.2018 16:00:00 10,4 7,8 46 25 74 40 WNW 1011,3 12 0,0
18.01.2018 15:00:00 11,5 9,1 35 19 61 33 W 1011,4 - 0,0
18.01.2018 14:00:00 11,4 8,8 40 21 54 29 WNW 1011,1 - 0,0
18.01.2018 13:00:00 11,7 10,3 37 20 51 28 WNW 1011,3 - 0,0
18.01.2018 12:00:00 11,2 10,3 39 21 60 33 WNW 1011,3 - 0,0
18.01.2018 11:00:00 11,4 10,9 43 23 63 34 WNW 1010,8 - 1,4
18.01.2018 10:00:00 11,6 11,1 45 24 71 39 W 1010,2 4,0 0,0
18.01.2018 09:00:00 11,6 11,3 46 25 72 39 W 1009,7 - 0,2
18.01.2018 08:00:00 11,7 11,4 49 26 71 39 W 1009,5 - 0,0
18.01.2018 07:00:00 11,6 11,1 49 26 76 41 W 1009,3 1,5 0,0
18.01.2018 06:00:00 11,5 11,0 53 28 80 43 W 1009,5 - 0,0
18.01.2018 05:00:00 11,4 10,8 56 30 92 50 WSW 1009,8 - 0,0
18.01.2018 04:00:00 11,3 10,5 58 32 87 47 WSW 1010,3 10 0,0
18.01.2018 03:00:00 11,3 10,0 55 30 90 49 WSW 1010,7 - 0,0
18.01.2018 02:00:00 11,0 9,9 57 31 87 47 WSW 1011,5 - 0,0
18.01.2018 01:00:00 10,7 9,8 55 30 95 51 WSW 1012,4 - 0,0
18.01.2018 00:00:00 10,6 9,5 52 28 86 46 WSW 1013,1 - 0,0
17.01.2018 23:00:00 10,4 8,8 56 31 - - WSW 1014,0 - 0,0
17.01.2018 22:00:00 10,1 8,5 50 27 81 44 WSW 1015,1 12 0,0
17.01.2018 21:00:00 10,0 7,6 49 27 74 40 WSW 1015,9 - 0,0
17.01.2018 20:00:00 9,9 7,0 44 24 67 36 W 1016,9 - 0,0
17.01.2018 19:00:00 9,3 6,0 41 22 65 35 W 1017,3 12 0,0
17.01.2018 18:00:00 8,9 6,2 37 20 63 34 W 1018,2 - 0,0
17.01.2018 17:00:00 9,1 6,0 40 22 68 37 W 1019,0 - 0,0
17.01.2018 16:00:00 9,1 5,5 48 26 72 39 W 1019,0 12 0,0
17.01.2018 15:00:00 9,2 5,7 51 27 71 38 W 1019,2 - 0,2
17.01.2018 14:00:00 9,1 6,4 35 19 56 31 WNW 1019,6 - 0,0
17.01.2018 13:00:00 7,5 5,3 45 24 74 40 NW 1020,0 - 0,4
17.01.2018 12:00:00 9,4 4,8 46 25 69 38 WNW 1020,2 - 0,0
17.01.2018 11:00:00 8,6 4,2 47 25 74 40 NW 1019,4 - 0,0
17.01.2018 10:00:00 7,7 4,5 41 22 95 52 NW 1018,9 - 0,2
17.01.2018 09:00:00 8,1 4,5 48 26 90 48 NW 1017,8 - 0,0
17.01.2018 08:00:00 7,7 3,9 50 27 89 48 NW 1017,1 - 0,0
17.01.2018 07:00:00 6,7 4,2 53 29 111 60 NW 1016,1 - 0,0
17.01.2018 06:00:00 7,9 3,4 59 32 113 61 NW 1014,4 - 0,0
17.01.2018 05:00:00 7,5 3,9 71 38 106 57 WNW 1013,2 - 0,0
17.01.2018 04:00:00 7,6 3,1 71 38 106 57 WNW 1012,5 8 0,0
17.01.2018 03:00:00 6,4 2,7 69 38 113 61 WNW 1011,9 - 0,0
17.01.2018 02:00:00 7,9 3,4 72 39 109 59 NW 1010,9 - 0,0
17.01.2018 01:00:00 5,5 3,7 78 42 147 80 NW 1011,0 10 0,2
17.01.2018 00:00:00 6,9 4,4 62 33 114 61 WNW 1009,9 - 0,0
16.01.2018 23:00:00 7,0 3,4 80 43 122 66 NW 1008,4 - 0,0
16.01.2018 22:00:00 6,6 4,6 69 37 138 75 WNW 1007,9 12 0,4
16.01.2018 21:00:00 7,3 5,1 64 35 119 64 WNW 1007,5 - 0,8
16.01.2018 20:00:00 8,0 4,8 70 38 106 57 WNW 1006,9 - 0,0
16.01.2018 19:00:00 8,1 6,1 62 33 104 56 WNW 1006,5 12 0,2
16.01.2018 18:00:00 8,3 5,0 71 38 100 54 W 1006,3 - 0,2
16.01.2018 17:00:00 8,4 5,0 80 43 112 60 W 1006,4 - 0,0
16.01.2018 16:00:00 9,0 6,1 70 38 102 55 W 1006,6 8 0,4
16.01.2018 15:00:00 9,7 7,3 52 28 88 47 W 1007,2 - 0,0
16.01.2018 14:00:00 10,6 4,7 67 36 93 50 W 1007,3 - 0,0
16.01.2018 13:00:00 10,4 5,6 60 32 91 49 WNW 1008,3 10 0,0
16.01.2018 12:00:00 10,7 5,4 59 32 81 44 WNW 1008,9 - 0,0
16.01.2018 11:00:00 10,5 6,3 49 26 86 46 WNW 1008,7 - 0,0
16.01.2018 10:00:00 10,4 6,3 59 32 96 52 WNW 1008,2 8 0,0
16.01.2018 09:00:00 10,3 7,9 61 33 - - WNW 1007,5 - 0,0
16.01.2018 08:00:00 10,6 7,5 56 30 85 46 W 1007,2 - 0,0
16.01.2018 07:00:00 10,8 7,3 58 31 96 52 WNW 1006,7 10 0,0
16.01.2018 06:00:00 10,8 8,0 64 35 85 46 W 1006,0 - 0,0
16.01.2018 05:00:00 11,1 9,2 53 29 80 43 W 1005,7 - 0,0
16.01.2018 04:00:00 10,5 8,8 63 34 88 48 WNW 1006,0 15 0,0
16.01.2018 03:00:00 10,6 9,0 57 31 83 45 W 1006,1 - 0,0
16.01.2018 02:00:00 10,7 9,1 52 28 79 43 W 1006,2 - 0,0
16.01.2018 01:00:00 10,8 9,2 50 27 74 40 W 1006,7 15 0,0
16.01.2018 00:00:00 10,3 9,1 52 28 74 40 W 1006,5 - 0,0
15.01.2018 23:00:00 10,7 8,5 47 26 94 51 W 1006,6 - 0,0
15.01.2018 22:00:00 10,7 9,3 45 24 77 42 W 1006,5 12 0,0
15.01.2018 21:00:00 10,4 8,7 39 21 65 35 W 1006,8 - 0,0
15.01.2018 20:00:00 10,4 8,8 58 32 80 43 WNW 1006,4 - 0,0
15.01.2018 19:00:00 10,5 9,7 45 24 66 36 W 1006,1 - 0,0
15.01.2018 18:00:00 10,3 9,7 38 20 72 39 W 1006,4 - 0,0
15.01.2018 17:00:00 10,2 9,1 55 30 74 40 WNW 1005,8 - 0,0
15.01.2018 16:00:00 10,7 9,5 49 26 74 40 WNW 1005,7 8 0,4
15.01.2018 15:00:00 11,9 10,3 52 28 73 39 W 1006,1 - 0,0
15.01.2018 14:00:00 10,6 10,0 53 29 80 43 W 1005,9 - 0,4
15.01.2018 13:00:00 11,6 11,1 53 28 81 44 W 1006,2 8 0,0
15.01.2018 12:00:00 11,5 11,2 54 29 77 42 W 1006,2 - 0,0
15.01.2018 11:00:00 11,6 11,3 53 28 78 42 W 1006,6 - 0,2
15.01.2018 10:00:00 11,6 11,3 52 28 76 41 WSW 1006,7 2,0 0,6
15.01.2018 09:00:00 11,3 11,0 51 27 82 44 WSW 1007,2 - 1,2
15.01.2018 08:00:00 10,8 10,3 52 28 79 42 SW 1008,2 - 1,0
15.01.2018 07:00:00 10,4 9,9 55 30 86 46 SW 1009,2 4,0 0,6
15.01.2018 06:00:00 10,0 9,4 50 27 75 40 SW 1010,4 - 0,0
15.01.2018 05:00:00 9,8 8,9 50 27 75 40 SW 1011,9 - 0,2
15.01.2018 04:00:00 10,4 8,3 44 24 68 37 SW 1013,5 20 0,0
15.01.2018 03:00:00 10,2 7,8 39 21 57 31 SW 1014,6 - 0,0
15.01.2018 02:00:00 10,0 6,9 36 19 53 28 SW 1015,8 - 0,0
15.01.2018 01:00:00 9,9 7,1 33 18 48 26 WSW 1017,1 20 0,0
15.01.2018 00:00:00 9,4 7,2 25 13 37 20 SW 1017,2 - 0,0
14.01.2018 23:00:00 9,4 7,7 22 12 34 18 SW 1017,8 - 0,0
14.01.2018 22:00:00 8,9 7,5 26 14 35 19 SSW 1018,3 20 0,0
14.01.2018 21:00:00 8,1 6,9 23 12 29 16 SSW 1018,4 - 0,0
14.01.2018 20:00:00 6,5 5,3 21 11 23 13 SW 1018,4 - 0,0
14.01.2018 19:00:00 6,1 4,4 18 10 22 12 SW 1018,2 18 0,0
14.01.2018 18:00:00 6,7 4,0 15 8 16 9 SW 1017,9 - 0,0
14.01.2018 17:00:00 9,6 5,8 8 5 13 7 SW 1017,8 - 0,0
14.01.2018 16:00:00 9,1 5,8 10 5 12 7 W 1017,9 18 0,0
14.01.2018 15:00:00 9,1 5,3 7 4 13 7 W 1017,5 - 0,0
14.01.2018 14:00:00 9,4 5,2 5 3 8 5 N 1017,9 - 0,0
14.01.2018 13:00:00 9,0 5,0 3 1 8 4 NW 1017,9 18 0,0
14.01.2018 12:00:00 8,8 5,0 4 2 11 6 N 1017,9 - 0,0
14.01.2018 11:00:00 7,6 5,2 6 3 16 9 ENE 1017,9 - 0,0
14.01.2018 10:00:00 6,8 4,8 15 8 24 13 E 1017,5 10 0,0
14.01.2018 09:00:00 6,7 5,2 19 10 30 16 E 1016,8 - 0,0
14.01.2018 08:00:00 7,1 6,4 23 13 28 15 E 1015,8 - 0,0
14.01.2018 07:00:00 7,4 6,7 11 6 18 10 ESE 1015,3 - 0,2
14.01.2018 06:00:00 7,4 6,7 10 5 15 8 SE 1015,1 - 0,4
14.01.2018 05:00:00 7,0 6,3 6 3 9 5 S 1014,9 - 0,0
14.01.2018 04:00:00 7,1 6,4 6 4 14 7 SE 1014,6 15 0,0
14.01.2018 03:00:00 6,7 6,0 5 3 13 7 SSE 1014,3 - 0,0
14.01.2018 02:00:00 6,9 6,2 6 4 18 10 SSE 1014,4 - 0,0
14.01.2018 01:00:00 6,9 6,2 12 6 21 11 SE 1014,2 15 0,2
14.01.2018 00:00:00 7,0 6,3 10 6 22 12 SSE 1014,1 - 0,0
13.01.2018 23:00:00 7,0 6,3 13 7 25 13 SSE 1013,8 - 0,2
13.01.2018 22:00:00 7,1 6,2 15 8 28 15 SE 1013,6 20 0,0
13.01.2018 21:00:00 7,1 6,4 22 12 37 20 SE 1013,2 - 0,0
13.01.2018 20:00:00 7,2 6,5 22 12 44 24 SSE 1012,5 - 0,0
13.01.2018 19:00:00 7,4 6,8 27 15 60 32 SE 1011,9 15 0,0
13.01.2018 18:00:00 7,4 6,8 38 21 54 29 SE 1011,5 - 0,4
13.01.2018 17:00:00 7,5 6,9 25 14 35 19 SE 1011,7 - 12,0
13.01.2018 16:00:00 8,1 7,5 16 9 46 25 S 1011,7 6 3,2
13.01.2018 15:00:00 8,8 8,2 34 19 69 38 SE 1010,9 - 0,2
13.01.2018 14:00:00 9,0 8,1 37 20 68 37 SSE 1010,9 - 0,8
13.01.2018 13:00:00 9,0 8,4 41 22 78 42 SE 1011,3 5 0,8
13.01.2018 12:00:00 8,7 8,1 54 29 83 45 SE 1011,6 - 0,2
13.01.2018 11:00:00 9,1 8,3 54 29 80 43 SE 1011,2 - 0,5
13.01.2018 10:00:00 9,5 8,4 50 27 90 49 SE 1011,0 5 0,6
13.01.2018 09:00:00 9,5 8,6 46 25 86 47 SSE 1011,1 - 0,8
13.01.2018 08:00:00 9,6 8,7 45 25 92 50 SSE 1011,1 - 1,2
13.01.2018 07:00:00 9,5 8,6 53 28 91 49 SE 1011,0 10 0,8
13.01.2018 06:00:00 9,5 8,4 51 28 93 50 SE 1011,4 - 0,8

tt = temperature
td = dewpoint
ff = wind speed
fx = gusts
dd = wind direction
ppp = reduced air pressure
vv = visibility
rr = precipitation

Next stations